This demonstration page uses our WeatherBlox Daily Observations layout. Learn more.

Left ArrowRight Arrow

Hourly Observations for May 6, 2020

Temp ( °F °C ) Dew Point ( °F °C ) Humidity (%) Winds ( mph kmh ) Pressure ( in mb ) Visibility ( mi km ) Precip ( " mm )
12:52 am 00:52 Clear 50 10 38 3.3 63 63 NNW 7 11 30.11 1020 10 16 0.00 0.00
1:52 am 01:52 Clear 47 8.3 38 3.3 71 71 NNW 7 11 30.10 1019 10 16 0.00 0.00
2:52 am 02:52 Clear 49 9.4 38 3.3 66 66 WNW 7 11 30.11 1020 10 16 0.00 0.00
3:52 am 03:52 Clear 45 7.2 39 3.9 80 80 NNW 8 13 30.13 1020 10 16 0.00 0.00
4:52 am 04:52 Cloudy 47 8.3 42 5.6 83 83 NW 8 13 30.15 1021 10 16 0.00 0.00
5:52 am 05:52 Cloudy 47 8.3 42 5.6 83 83 NW 9 15 30.19 1022 10 16 0.00 0.00
6:52 am 06:52 Cloudy 47 8.3 42 5.6 83 83 NNW 8 13 30.21 1023 10 16 0.00 0.00
7:52 am 07:52 Mostly Sunny 49 9.4 42 5.6 77 77 N 13 20 30.22 1023 10 16 0.00 0.00
8:14 am 08:14 Mostly Cloudy 49 9.4 42 5.6 77 77 N 15 24 30.24 1024 10 16 0.00 0.00
8:23 am 08:23 Partly Cloudy 50 10 42 5.6 74 74 N 12 19 30.24 1024 10 16 0.00 0.00
8:52 am 08:52 Sunny 50 10 42 5.6 74 74 NNW 10 17 30.23 1024 10 16 0.00 0.00
9:52 am 09:52 Sunny 54 12.2 43 6.1 67 67 N 12 19 30.24 1024 10 16 0.00 0.00
10:52 am 10:52 Sunny 56 13.3 42 5.6 60 60 N 14 22 30.25 1025 10 16 0.00 0.00
11:52 am 11:52 Sunny 58 14.4 44 6.7 60 60 N 13 20 30.25 1024 10 16 0.00 0.00
12:52 pm 12:52 Mostly Sunny 61 16.1 45 7.2 56 56 NNW 12 19 30.24 1024 10 16 0.00 0.00
1:52 pm 13:52 Partly Cloudy 62 16.7 43 6.1 50 50 NW 18 30 30.23 1024 10 16 0.00 0.00
2:52 pm 14:52 Mostly Cloudy 61 16.1 43 6.1 52 52 NNW 15 24 30.22 1023 10 16 0.00 0.00
3:52 pm 15:52 Partly Cloudy 63 17.2 43 6.1 48 48 NNW 13 20 30.20 1023 10 16 0.00 0.00
4:52 pm 16:52 Mostly Cloudy 62 16.7 43 6.1 50 50 N 14 22 30.19 1022 10 16 0.00 0.00
5:52 pm 17:52 Mostly Cloudy 60 15.6 41 5 50 50 NNW 12 19 30.18 1022 10 16 0.00 0.00
6:52 pm 18:52 Mostly Sunny 60 15.6 42 5.6 52 52 NNE 7 11 30.17 1022 10 16 0.00 0.00
7:52 pm 19:52 Mostly Sunny 57 13.9 42 5.6 58 58 NNE 6 9 30.17 1022 10 16 0.00 0.00
8:52 pm 20:52 Cloudy 56 13.3 42 5.6 60 60 NE 5 7 30.18 1022 10 16 0.00 0.00
9:52 pm 21:52 Mostly Cloudy 56 13.3 42 5.6 60 60 Calm 30.19 1023 10 16 0.00 0.00
10:52 pm 22:52 Partly Cloudy 51 10.6 44 6.7 77 77 Calm 30.21 1023 10 16 0.00 0.00
11:52 pm 23:52 Clear 47 8.3 42 5.6 83 83 Calm 30.20 1023 10 16 0.00 0.00

Powered by AerisWeather